{"data":{"norad_id":69210,"epoch":"2026-09-19T23:59:17.744352Z","epoch_age_seconds":70157,"freshness":"FRESH","line1":"1 69210U 26114AE  26262.99951093  .00014098  00000+0  42740-3 0  9996","line2":"2 69210  53.1583 115.7346 0000979  97.5340 262.5774 15.34415038 19372","mean_motion":15.34415038,"eccentricity":9.79e-5,"inclination_deg":53.1583,"raan_deg":115.7346,"arg_perigee_deg":97.534,"mean_anomaly_deg":262.5774,"bstar":0.0004274,"rev_number":1937,"period_min":93.846838328497,"perigee_km":461.98883058322,"apogee_km":463.32825835083,"semimajor_km":6840.795544467,"source":"CELESTRAK","updated_at":"2026-09-20T09:00:44.101455Z"}}